GW3247 Weather Reports


time (UTC)temp
C
wind
direction
speed
KPH
gust
KPH
rain 1hr
cm
rain 24hr
cm
rain mn
cm
humidity
%
barometer
mb
20260503013031 13 261 6.4 14.5 0.00 0.00 0.00 70 1011.1
20260503011518 13 261 6.4 11.3 0.00 0.00 0.00 68 1011.2
20260503010016 13 245 4.8 9.7 0.00 0.00 0.00 67 1011.2
20260503004513 13 236 8.0 12.9 0.00 0.00 0.00 64 1011.4
20260503003012 14 228 8.0 12.9 0.00 0.00 0.00 62 1011.6
20260503001506 14 258 6.4 12.9 0.00 0.00 0.00 61 1011.8
20260503000004 14 280 3.2 9.7 0.00 0.00 0.00 60 1011.7
20260502234501 15 259 4.8 9.7 0.00 0.00 0.00 58 1011.9
20260502233059 15 251 6.4 11.3 0.00 0.00 0.00 57 1012.2
20260502231556 15 265 6.4 9.7 0.00 0.00 0.00 56 1012.2
20260502230100 15 283 6.4 9.7 0.00 0.00 0.00 55 1012.3
20260502224552 16 259 6.4 11.3 0.00 0.00 0.00 54 1012.3
20260502223059 16 243 6.4 14.5 0.00 0.00 0.00 53 1012.1
20260502221547 16 259 4.8 11.3 0.00 0.00 0.00 52 1012.2
20260502220053 16 265 4.8 12.9 0.00 0.00 0.00 51 1012.2
20260502214548 16 226 4.8 11.3 0.00 0.00 0.00 50 1012.2
20260502213048 16 245 4.8 12.9 0.00 0.00 0.00 51 1012.3
20260502211543 17 236 4.8 9.7 0.00 0.00 0.00 49 1012.4
20260502210042 17 229 6.4 11.3 0.00 0.00 0.00 48 1012.4
20260502204540 17 258 4.8 11.3 0.00 0.00 0.00 47 1012.6
20260502203046 17 263 3.2 6.4 0.00 0.00 0.00 47 1012.6
20260502201541 18 270 3.2 8.0 0.00 0.00 0.00 47 1012.7
20260502200038 18 252 3.2 8.0 0.00 0.00 0.00 45 1012.9
20260502194537 18 276 4.8 12.9 0.00 0.00 0.00 45 1013.1
20260502193052 19 282 4.8 14.5 0.00 0.00 0.00 45 1013.0
20260502191539 19 274 6.4 12.9 0.00 0.00 0.00 44 1013.0
20260502190042 20 238 3.2 8.0 0.00 0.00 0.00 43 1012.9
20260502184544 20 257 1.6 4.8 0.00 0.00 0.00 43 1012.8
20260502183034 20 259 3.2 6.4 0.00 0.00 0.00 41 1012.8
20260502181536 21 269 1.6 6.4 0.00 0.00 0.00 40 1012.9
20260502163025 23 322 9.7 24.1 0.00 0.00 0.00 32 1013.3
20260502161524 23 291 9.7 25.7 0.00 0.00 0.00 30 1013.5
20260502151518 24 269 9.7 24.1 0.00 0.00 0.00 29 1013.8
20260502123056 23 236 16.1 25.7 0.00 0.00 0.00 35 1015.6
20260502121554 22 235 12.9 27.4 0.00 0.00 0.00 37 1015.8
20260502114551 22 238 20.9 37.0 0.00 0.00 0.00 37 1016.1
20260502113101 23 300 9.7 20.9 0.00 0.00 0.00 37 1016.3
20260502111547 22 269 11.3 25.7 0.00 0.00 0.00 38 1016.4
20260502110048 22 247 16.1 27.4 0.00 0.00 0.00 38 1016.5
20260502104543 22 266 9.7 24.1 0.00 0.00 0.00 40 1016.7
20260502103039 22 242 9.7 20.9 0.00 0.00 0.00 45 1016.8
20260502101538 20 197 6.4 17.7 0.00 0.00 0.00 54 1017.1
20260502091527 20 209 12.9 20.9 0.00 0.00 0.00 54 1017.5
20260502071502 16 220 8.0 16.1 0.00 0.00 0.00 63 1018.5
20260502070117 16 236 8.0 14.5 0.00 0.00 0.00 62 1018.7
20260502064556 16 236 6.4 12.9 0.00 0.00 0.00 63 1018.8
20260502063101 15 219 11.3 19.3 0.00 0.00 0.00 63 1018.9
20260502061548 15 231 9.7 16.1 0.00 0.00 0.00 64 1019.1
20260502060046 14 205 9.7 16.1 0.00 0.00 0.00 64 1019.2
20260502054643 13 229 9.7 14.5 0.00 0.00 0.00 64 1019.4
20260502053042 13 224 9.7 16.1 0.00 0.00 0.00 65 1019.5
20260502051537 13 214 9.7 14.5 0.00 0.00 0.00 65 1019.5
20260502050031 12 211 8.0 14.5 0.00 0.00 0.00 65 1019.7
20260502044530 12 221 8.0 14.5 0.00 0.00 0.00 64 1019.8
20260502043027 12 211 8.0 14.5 0.00 0.00 0.00 63 1020.0
20260502041536 12 243 8.0 14.5 0.00 0.00 0.00 64 1020.0
20260502040042 11 217 6.4 12.9 0.00 0.00 0.00 65 1020.0
20260502034520 11 217 8.0 14.5 0.00 0.00 0.00 64 1020.2
20260502033028 12 238 8.0 16.1 0.00 0.00 0.00 64 1020.4
20260502031516 12 239 8.0 17.7 0.00 0.00 0.00 63 1020.6
20260502030015 11 233 6.4 17.7 0.00 0.00 0.00 64 1020.6
20260502024513 11 236 6.4 12.9 0.00 0.00 0.00 65 1020.8
20260502023021 11 231 4.8 11.3 0.00 0.00 0.00 66 1021.1
20260502021508 11 237 3.2 9.7 0.00 0.00 0.00 66 1021.2
20260502020006 10 211 3.2 0.0 0.00 0.00 0.00 67 1021.3
20260502014506 10 216 3.2 6.4 0.00 0.00 0.00 66 1021.6